Location: Navarre
(52.9016°N, 113.4144°W)
Time: 07:26:00
(UTC+00:00)

Envisat - Pass Details

Date: 03 December 2023
Orbit: 762 x 764 km, 98.3° (Epoch: 24 February)

Event Time Altitude Azimuth Distance (km) Brightness Sun altitude
Rises 11:10:50 0° 16° (NNE) 3,245 6.6 -37.3°
Reaches altitude 10° 11:13:10 10° 18° (NNE) 2,314 5.8 -36.9°
Enters shadow 11:13:28 12° 19° (NNE) 2,198 5.6 -36.9°
